Wind_Speed
25 26 26 26 25 25 25 25 24 24 23 22 21 20 19 18 17 16 15 14 13 12 11 11 10 9 8 8 8 9 8 8 8 9 9 10 10 11 11 12 13 13 14
27 28 28 28 28 28 27 27 26 25 25 24 23 22 21 20 19 18 17 16 16 15 13 12 12 11 10 10 10 10 10 9 9 10 10 11 11 12 12 13 14 14 15
29 29 30 30 30 30 30 29 28 28 27 27 26 25 24 22 21 21 19 19 18 17 15 14 14 13 12 12 11 11 10 10 10 11 11 12 12 12 13 13 14 15 16
31 32 32 32 32 32 32 31 31 30 29 29 28 27 26 25 24 23 22 21 20 19 17 16 15 15 14 13 13 12 12 11 12 12 12 13 13 13 14 14 15 15 16
34 34 35 35 35 34 34 33 33 33 32 31 30 29 28 27 26 25 24 23 22 21 19 18 17 16 15 15 15 14 13 13 13 13 13 13 14 14 15 15 16 16 17
37 36 37 37 37 37 36 35 35 35 34 33 32 31 30 29 28 27 26 25 24 22 21 20 19 18 17 16 16 15 14 14 14 14 14 15 15 15 16 16 16 17 17
39 39 39 40 40 39 38 37 37 37 36 35 34 33 32 31 30 29 28 27 26 24 23 22 21 20 19 18 17 17 16 16 16 15 16 16 16 16 16 17 17 17 18
42 42 42 42 42 41 41 40 39 39 38 38 36 36 34 33 32 31 30 29 28 26 25 24 23 21 21 20 19 18 17 17 16 16 17 17 17 17 17 17 17 18 18
45 45 45 44 44 44 43 42 42 41 40 39 39 38 37 36 34 33 32 31 30 28 27 25 24 23 22 21 20 19 19 18 17 17 17 17 17 17 17 17 18 19 19
47 47 47 47 46 46 45 45 44 43 43 42 41 40 39 38 37 35 34 33 32 30 28 27 26 25 23 23 21 20 20 19 18 18 18 18 18 18 18 18 18 19 19
49 49 49 48 48 48 48 47 46 46 45 44 43 42 41 40 39 37 36 35 33 32 30 29 27 26 25 24 22 21 21 20 19 19 19 19 18 18 19 19 19 19 20
52 51 51 50 50 50 50 49 48 48 47 46 45 44 43 42 40 39 38 36 35 33 32 30 29 27 26 25 23 22 21 21 20 20 20 19 19 19 19 20 20 20 21
54 53 53 53 52 52 51 51 50 50 49 48 47 46 45 43 42 41 39 37 36 35 33 31 30 29 27 26 25 23 22 22 21 21 21 20 20 20 20 20 21 21 22
56 55 55 55 54 54 53 52 51 51 51 50 49 48 47 45 44 42 40 39 37 36 34 33 31 30 29 27 26 24 24 23 23 22 22 21 21 21 21 21 22 23 24
58 57 57 57 56 55 55 54 53 53 52 51 50 50 48 47 45 44 42 41 39 37 36 34 32 31 30 28 27 26 25 24 24 23 23 22 22 22 22 23 24 24 25
59 58 59 59 58 57 56 56 55 54 53 52 51 51 50 48 47 45 44 42 41 39 37 35 34 32 31 30 28 27 26 25 25 24 23 23 23 23 24 24 25 26 27
59 59 59 59 59 59 58 57 57 56 54 54 53 52 52 50 48 47 45 43 42 40 38 37 35 33 32 30 29 28 27 26 25 25 24 24 24 24 25 26 26 27 28
58 59 59 60 60 60 60 59 59 58 56 55 53 53 53 52 49 47 46 44 43 42 40 38 36 35 33 31 30 29 28 28 27 26 25 25 25 25 26 26 27 28 29
55 57 58 58 60 61 61 61 60 59 58 55 54 53 53 52 50 49 47 45 44 43 41 39 37 36 34 32 31 30 29 28 27 27 26 26 26 26 27 27 28 29 30
52 54 57 58 60 61 62 62 61 61 59 56 56 55 54 53 52 51 48 46 45 44 42 40 39 37 35 33 32 31 30 29 28 28 27 27 27 27 28 28 29 30 31
50 53 54 57 59 61 62 63 62 61 59 56 56 55 54 54 52 51 49 47 46 44 43 41 40 39 37 35 33 32 31 30 29 29 28 28 28 28 29 29 30 31 33
49 52 52 55 58 61 62 62 62 61 60 57 56 55 53 53 51 50 50 48 46 45 43 41 40 39 38 37 35 33 32 31 31 30 30 29 29 29 30 31 32 33 34
48 50 52 54 56 59 62 64 63 61 60 58 55 55 55 53 52 50 50 49 47 46 44 42 40 39 38 37 36 34 33 32 32 31 31 31 31 31 31 31 33 34 35
47 49 52 54 55 58 61 63 63 62 60 58 56 54 53 54 52 51 51 49 48 47 45 43 41 39 39 38 37 36 34 33 33 32 32 32 32 32 32 32 34 35 36
46 49 51 53 54 56 59 63 63 61 60 59 56 54 54 55 53 52 51 50 49 48 46 45 43 41 39 39 38 37 35 34 34 33 33 33 33 33 33 34 35 36 36
44 47 49 51 53 55 57 62 62 62 60 60 57 55 55 56 54 53 51 50 49 48 47 46 45 42 40 39 38 37 36 35 34 34 34 34 34 34 34 35 36 37 38
Wind_Direction
246 246 246 244 242 240 238 237 237 237 235 234 234 234 234 235 236 237 238 240 242 245 248 251 254 257 265 273 279 285 291 296 304 312 318 322 324 327 328 328 329 330 331
247 245 245 245 243 242 240 238 237 237 236 234 233 234 235 236 237 238 239 241 244 246 248 249 252 257 264 271 278 283 287 290 297 306 311 316 319 323 325 325 326 327 327
249 246 245 244 243 242 241 240 238 237 236 235 234 235 235 236 238 239 241 242 244 247 248 249 252 257 264 271 277 282 285 287 293 302 307 312 316 319 320 321 323 324 325
251 248 246 244 243 243 241 240 239 237 236 235 235 236 236 237 238 239 241 242 244 246 248 249 252 256 263 269 276 281 284 286 291 298 303 308 312 315 317 318 320 321 323
252 249 247 246 244 243 242 241 240 238 237 236 236 236 237 238 239 240 241 242 244 246 248 248 251 255 261 268 274 278 282 286 290 296 300 304 308 311 314 315 317 318 320
254 251 248 247 245 244 242 241 240 239 237 237 237 237 238 238 239 240 241 242 244 247 248 249 251 255 259 266 272 276 280 284 289 294 297 301 305 308 311 313 314 315 317
255 252 248 247 246 244 243 241 240 239 238 237 237 238 238 238 239 239 240 242 244 247 248 249 250 254 259 264 269 274 278 282 286 291 295 298 302 306 308 311 312 313 315
254 252 249 246 245 244 243 242 240 239 238 238 237 238 239 239 239 239 240 241 243 246 248 248 249 253 258 262 268 272 276 280 284 289 294 298 300 304 306 309 311 312 314
254 252 249 246 245 244 243 242 240 239 239 238 237 237 238 239 239 240 240 241 243 245 247 247 249 253 258 261 266 270 274 279 283 288 293 297 298 302 305 308 309 311 313
254 252 249 246 244 244 243 242 240 239 238 238 238 238 238 239 240 240 240 241 242 245 246 247 248 252 257 260 264 269 273 278 282 286 291 294 297 300 304 306 308 310 312
253 251 249 246 243 242 241 241 239 238 238 238 238 238 239 239 240 240 241 241 242 244 245 246 248 251 255 259 263 268 272 276 280 284 289 292 295 299 302 304 306 308 311
252 250 247 246 243 241 240 239 238 238 237 238 238 238 239 240 240 240 240 241 242 244 245 246 248 251 254 258 261 266 271 275 278 282 286 289 293 296 300 303 305 308 310
252 249 246 244 242 240 239 239 238 238 237 237 238 238 239 239 240 240 240 240 242 243 244 245 247 250 253 256 259 264 269 274 277 280 284 288 291 295 298 301 304 307 309
250 248 245 243 241 239 237 237 237 237 237 237 237 237 238 239 239 240 240 240 241 242 242 244 246 249 252 255 258 263 268 272 275 279 282 286 289 293 296 300 302 305 308
248 246 244 242 240 239 237 235 235 235 236 236 237 237 237 238 239 239 239 240 241 241 242 243 245 248 250 253 257 261 266 270 274 277 281 284 287 291 295 298 301 304 306
247 244 243 241 239 238 236 235 234 234 234 235 235 237 237 237 238 238 239 239 240 241 241 242 244 246 249 251 255 260 264 269 273 276 279 282 286 290 294 297 300 303 305
247 243 241 239 237 236 235 234 233 233 234 234 234 235 236 236 237 238 238 239 239 240 240 242 243 245 248 251 254 258 263 267 271 275 278 282 286 290 293 296 300 303 304
246 242 239 237 235 234 233 232 231 231 232 233 233 234 235 235 236 237 237 238 239 239 240 241 243 244 246 250 253 257 261 265 270 274 277 281 285 289 292 296 299 302 304
244 241 237 235 233 232 230 230 229 230 230 232 232 232 233 233 234 235 236 237 238 239 240 241 243 244 246 249 253 257 260 264 268 273 276 280 285 288 292 295 299 302 304
243 240 237 234 231 230 229 228 228 228 229 230 230 230 232 233 233 233 234 236 237 238 240 241 243 244 245 248 252 256 260 264 267 272 275 279 284 288 291 295 298 301 303
242 239 236 234 230 228 227 227 227 226 227 228 228 229 231 232 231 231 233 235 237 239 240 241 242 244 246 248 251 255 259 263 267 271 274 278 283 287 290 294 297 300 302
240 238 235 233 230 228 227 226 225 225 225 226 228 228 230 230 230 231 232 233 236 238 239 239 241 243 246 248 251 254 259 262 267 270 274 277 281 286 290 294 297 299 302
241 238 234 233 230 227 226 225 224 223 225 225 227 228 229 230 229 230 232 232 235 237 238 238 240 243 245 248 251 254 258 263 266 269 273 277 281 285 289 293 297 299 302
241 238 235 232 229 227 225 224 223 222 224 224 224 227 229 229 229 231 231 232 235 236 237 238 240 242 245 248 251 254 258 262 265 268 272 277 280 285 289 293 297 299 302
241 238 234 231 228 227 224 223 221 220 223 223 223 226 227 228 229 230 232 232 234 235 237 238 240 242 245 248 252 254 258 261 265 268 271 275 279 284 288 293 296 299 301
240 237 232 230 227 225 223 222 219 220 221 222 222 225 228 228 228 229 231 231 232 234 237 238 240 242 245 248 251 255 258 261 264 268 271 275 279 284 288 292 295 298 300
Height
5844 5845 5846 5848 5849 5851 5853 5855 5857 5858 5860 5861 5862 5864 5865 5866 5867 5868 5869 5869 5870 5871 5871 5872 5872 5872 5872 5872 5871 5871 5871 5870 5870 5869 5868 5867 5866 5865 5864 5863 5861 5860 5858
5839 5840 5842 5844 5845 5847 5849 5851 5853 5855 5856 5858 5859 5861 5862 5863 5865 5866 5867 5868 5868 5869 5870 5870 5871 5871 5871 5871 5870 5870 5869 5869 5868 5868 5867 5866 5865 5864 5863 5861 5860 5858 5857
5834 5835 5837 5839 5841 5843 5845 5847 5849 5851 5853 5854 5856 5858 5859 5861 5862 5863 5864 5865 5866 5867 5868 5868 5869 5869 5869 5869 5869 5868 5868 5868 5867 5866 5866 5865 5864 5862 5861 5860 5858 5857 5855
5828 5830 5832 5834 5836 5838 5840 5842 5844 5846 5848 5850 5852 5854 5856 5857 5859 5860 5862 5863 5864 5865 5866 5866 5867 5867 5867 5867 5867 5867 5866 5866 5865 5865 5864 5863 5862 5861 5859 5858 5856 5855 5853
5821 5824 5826 5828 5830 5832 5835 5837 5839 5841 5844 5846 5848 5850 5852 5854 5855 5857 5858 5860 5861 5862 5863 5864 5865 5865 5865 5865 5865 5865 5865 5864 5864 5863 5862 5861 5860 5859 5857 5856 5854 5852 5851
5814 5817 5820 5822 5824 5826 5829 5831 5834 5836 5838 5841 5843 5845 5847 5849 5851 5853 5855 5856 5858 5859 5860 5861 5862 5863 5863 5863 5863 5863 5863 5862 5862 5861 5860 5859 5858 5857 5855 5853 5852 5850 5848
5806 5809 5812 5815 5817 5820 5823 5825 5828 5830 5833 5835 5838 5840 5842 5845 5847 5849 5851 5852 5854 5856 5857 5858 5859 5860 5860 5860 5860 5860 5860 5860 5859 5859 5858 5857 5856 5854 5853 5851 5849 5848 5846
5798 5801 5804 5807 5810 5813 5816 5818 5821 5824 5827 5829 5832 5834 5837 5840 5842 5844 5846 5848 5850 5852 5853 5855 5856 5857 5857 5857 5857 5857 5857 5857 5857 5856 5855 5854 5853 5852 5850 5849 5847 5845 5843
5788 5791 5795 5799 5801 5805 5808 5811 5814 5817 5820 5823 5826 5828 5831 5834 5836 5839 5841 5844 5846 5848 5849 5851 5852 5853 5854 5854 5854 5854 5855 5854 5854 5853 5852 5852 5850 5849 5848 5846 5844 5842 5840
5778 5781 5785 5789 5793 5796 5800 5803 5806 5810 5813 5816 5819 5822 5825 5828 5830 5833 5836 5839 5841 5843 5845 5847 5848 5849 5850 5851 5851 5851 5851 5851 5851 5850 5849 5849 5847 5846 5845 5843 5841 5839 5837
5766 5770 5774 5778 5782 5786 5790 5794 5798 5801 5805 5808 5812 5815 5818 5821 5824 5828 5831 5833 5836 5838 5840 5842 5844 5845 5846 5847 5848 5848 5848 5848 5848 5847 5846 5845 5844 5843 5842 5840 5838 5836 5834
5755 5759 5762 5767 5771 5776 5780 5785 5789 5793 5796 5800 5804 5808 5811 5815 5818 5821 5825 5827 5830 5833 5835 5837 5839 5841 5842 5843 5844 5844 5844 5845 5844 5844 5843 5842 5841 5840 5838 5837 5835 5833 5831
5741 5746 5751 5755 5760 5765 5770 5774 5780 5784 5788 5792 5796 5800 5804 5808 5811 5815 5818 5822 5825 5827 5830 5832 5834 5836 5838 5839 5839 5840 5840 5841 5841 5840 5839 5838 5837 5836 5835 5833 5831 5829 5827
5728 5733 5737 5742 5748 5753 5758 5764 5769 5774 5779 5783 5788 5792 5796 5800 5804 5808 5812 5815 5819 5822 5824 5827 5829 5831 5833 5834 5835 5836 5836 5837 5837 5836 5835 5835 5834 5832 5831 5829 5827 5825 5823
5713 5719 5724 5729 5735 5741 5747 5753 5758 5764 5769 5774 5779 5783 5788 5792 5797 5801 5805 5809 5812 5815 5818 5821 5823 5826 5828 5829 5830 5831 5832 5832 5832 5832 5831 5830 5829 5828 5827 5825 5823 5821 5818
5697 5704 5709 5715 5721 5728 5735 5741 5747 5753 5759 5764 5768 5774 5779 5784 5789 5793 5797 5801 5805 5809 5812 5815 5817 5820 5822 5824 5825 5826 5827 5827 5827 5827 5827 5826 5825 5824 5823 5821 5819 5816 5814
5681 5688 5694 5700 5707 5714 5722 5729 5735 5742 5748 5753 5759 5764 5770 5775 5780 5785 5790 5794 5798 5801 5805 5808 5811 5814 5816 5818 5820 5821 5822 5822 5822 5822 5822 5821 5821 5819 5818 5816 5814 5812 5809
5664 5671 5678 5685 5692 5700 5708 5715 5723 5730 5736 5743 5749 5755 5760 5766 5771 5776 5781 5786 5790 5794 5798 5802 5805 5807 5810 5812 5814 5815 5816 5817 5817 5817 5817 5817 5816 5814 5813 5811 5809 5806 5804
5649 5655 5662 5669 5677 5685 5693 5702 5710 5718 5724 5732 5739 5744 5749 5755 5762 5768 5773 5778 5782 5786 5791 5794 5798 5801 5803 5806 5808 5809 5810 5811 5811 5812 5812 5811 5811 5809 5808 5806 5804 5801 5798
5635 5641 5648 5655 5662 5670 5679 5688 5696 5704 5712 5720 5728 5735 5740 5745 5752 5758 5764 5769 5774 5778 5783 5787 5791 5794 5797 5799 5801 5803 5804 5805 5806 5806 5806 5806 5805 5804 5802 5800 5798 5795 5793
5622 5627 5634 5641 5648 5657 5665 5674 5683 5693 5701 5709 5717 5724 5730 5735 5741 5749 5755 5761 5766 5771 5775 5779 5783 5787 5790 5792 5795 5796 5798 5799 5800 5800 5800 5800 5799 5798 5797 5795 5792 5790 5787
5609 5615 5621 5628 5635 5643 5652 5661 5671 5681 5690 5697 5705 5713 5719 5725 5732 5739 5746 5751 5757 5762 5767 5771 5775 5779 5782 5785 5788 5789 5791 5793 5794 5794 5794 5794 5793 5792 5790 5788 5786 5783 5780
5597 5603 5609 5615 5623 5631 5639 5648 5658 5668 5677 5685 5694 5702 5709 5716 5723 5730 5737 5742 5748 5753 5758 5763 5768 5772 5775 5778 5780 5783 5785 5787 5787 5787 5787 5787 5787 5786 5784 5782 5780 5777 5774
5585 5590 5596 5602 5610 5618 5627 5636 5645 5656 5666 5676 5685 5692 5698 5705 5713 5720 5727 5733 5739 5745 5750 5755 5760 5764 5767 5770 5773 5776 5778 5780 5781 5781 5781 5781 5780 5779 5778 5776 5773 5770 5767
5573 5578 5584 5590 5598 5606 5615 5624 5634 5644 5654 5664 5672 5680 5688 5695 5703 5711 5718 5724 5730 5736 5742 5747 5752 5756 5760 5763 5766 5768 5770 5772 5773 5774 5774 5774 5773 5772 5771 5769 5766 5763 5760
5562 5567 5572 5580 5588 5596 5604 5613 5623 5633 5643 5652 5661 5670 5678 5685 5693 5701 5708 5715 5721 5727 5733 5739 5743 5748 5752 5755 5758 5761 5763 5765 5766 5767 5767 5767 5766 5765 5764 5762 5759 5756 5753